Regional Weather Roundup
Issued by NWS Boston, MA

Current Version | Previous Version | Text Only | Print | Product List | Glossary Off
Versions: 1 2 3 4 5 6 7 8 9 10 11 12 13 14 15 16 17 18 19 20 21 22 23 24 25 26 27 28 29 30 31 32 33 34 35 36 37 38 39 40 41 42 43 44 45 46 47 48 49 50
000 ASUS41 KBOX 281110 RWRBOX REGIONAL WEATHER ROUNDUP NATIONAL WEATHER SERVICE TAUNTON MA 700 AM EDT WED JUN 28 2017 NOTE: "FAIR" INDICATES FEW OR NO CLOUDS BELOW 12,000 FEET WITH NO SIGNIFICANT WEATHER AND/OR OBSTRUCTIONS TO VISIBILITY. MAZALL-281200- EASTERN MASSACHUSETTS CITY SKY/WX TMP DP RH WIND PRES REMARKS BOSTON MOSUNNY 61 52 72 W12 30.02R BEVERLY SUNNY 57 54 89 W6 30.00R LAWRENCE SUNNY 59 53 80 W7 30.03R BEDFORD SUNNY 56 52 86 MISG 30.01R BLUE HILL N/A 55 51 86 MISG 30.01R NORWOOD SUNNY 58 54 86 W8 30.02R MARSHFIELD SUNNY 59 54 82 VRB7 30.01S PLYMOUTH SUNNY 60 50 69 W7 30.03R TAUNTON SUNNY 59 53 80 VRB3 30.03R NEW BEDFORD MOSUNNY 61 51 70 W7 30.02R $$ MAZALL-281200- CAPE COD AND THE ISLANDS CITY SKY/WX TMP DP RH WIND PRES REMARKS FALMOUTH N/A 61 52 72 W8 30.03S HYANNIS SUNNY 62 51 67 W7 30.01R CHATHAM SUNNY 62 54 74 VRB6 30.02R PROVINCETOWN SUNNY 60 53 77 W13 30.02R NANTUCKET SUNNY 64 55 72 W6 30.02R MARTHAS VNYRD SUNNY 62 56 80 NW8 30.03R $$ MAZALL-281200- CENTRAL AND WESTERN MASSACHUSETTS CITY SKY/WX TMP DP RH WIND PRES REMARKS WORCESTER SUNNY 53 48 83 W15 30.04R FITCHBURG SUNNY 59 51 75 NW8 30.03R ORANGE FOG 49 49 100 CALM 30.04S VSB 1/4 SPRINGFIELD MOSUNNY 53 53 98 SW3 30.05R WESTFIELD SUNNY 55 54 96 CALM 30.06 NORTH ADAMS MOSUNNY 56 51 84 W6 30.06R $$ RIZALL-281200- RHODE ISLAND CITY SKY/WX TMP DP RH WIND PRES REMARKS PROVIDENCE MOSUNNY 61 53 75 W10 30.04R NEWPORT SUNNY 61 54 77 W5 30.04R BLOCK ISLAND SUNNY 62 54 74 W6 30.06R WESTERLY SUNNY 60 53 77 W3 30.06R $$ CTZALL-281200- CONNECTICUT CITY SKY/WX TMP DP RH WIND PRES REMARKS BRADLEY INTL SUNNY 57 51 80 CALM 30.06S HARTFORD SUNNY 56 55 97 CALM 30.07R BRIDGEPORT MOSUNNY 63 51 65 NW8 30.07R DANBURY SUNNY 55 52 88 W3 30.10 GROTON SUNNY 60 53 77 NW3 30.05R NEW HAVEN MOSUNNY 60 52 74 N7 30.07R CHESTER FAIR 61 50 67 NW7 30.06S MERIDEN SUNNY 54 53 97 CALM 30.07R WILLIMANTIC PTSUNNY 54 52 93 CALM 30.06F FOG OXFORD SUNNY 55 48 76 NW3 30.08S $$ MEZ002-015-021-024-NHZ003-005-008-011-012-014-VTZ005-008-281200- NORTHERN NEW ENGLAND CITY SKY/WX TMP DP RH WIND PRES REMARKS PORTLAND ME MOSUNNY 55 52 89 W10 29.97R BANGOR ME PTSUNNY 57 56 96 SW6 29.92S CONCORD NH SUNNY 52 51 97 CALM 30.01R MANCHESTER NH MOSUNNY 55 48 77 S3 30.00R NASHUA NH SUNNY 57 52 83 CALM 30.02 PORTSMOUTH NH MOSUNNY 56 51 85 SW7 29.98R JAFFREY NH SUNNY 53 51 93 SW7 30.04R KEENE NH CLOUDY 48 48 100 CALM 30.05R FOG BURLINGTON VT PTSUNNY 56 53 90 S8 29.99R MT. WASHINGTON FOG 36 36 100 NW40 N/A VSB 0 WCI 21 $$ NYZ052-076-281200- EASTERN NEW YORK CITY SKY/WX TMP DP RH WIND PRES REMARKS ALBANY MOSUNNY 58 52 80 SW7 30.06R NEW YORK CITY MOSUNNY 64 52 64 NW12 30.08R $$ ANZALL-281200- MARINE OBSERVATIONS STATION/POSITION TIME TEMP WIND PRES VSBY WAVE AIR SEA DIR/SP/G HT/PER (UTC) (F) (DEG/KT/KT) (MB) (MI) (FT/S) BOSTON BUOY 1050 58 60 260/ 16/ 17 1015.6R 1/ 2 BUZZARDS BAY 1000 63 290/ 11/ 12 1017.3R NANTUCKET SOUND 1050 64 1016.1R 1/ 3 MASS BAY-STELLWA 1004 58 61 280/ 14/ 17 1014.8R 1/ 3 ISLE OF SHOALS 1000 54 260/ 13/ 14 1014.9R S OF BLOCK IS 1055 64 N/A 2/10 $$ ......................KEY......................... SKY/WX - SKY CONDITION/PRESENT WEATHER TMP - TEMPERATURE IN FAHRENHEIT DWPT - DEWPOINT IN FAHRENHEIT RH - RELATIVE HUMIDITY IN PERCENT WIND - DIRECTION AND SPEED IN MPH PRES - MEAN SEA LEVEL PRESSURE IN INCHES OF HG WCI - WIND CHILL INDEX VSB - VISIBILITY IN MILES HX - HEAT INDEX TC - TEMPERATURE IN CELSIUS VRB - VARIABLE WIND DIRECTION N/A - NOT AVAILABLE

USA.gov is the U.S. government's official web portal to all federal, state and local government web resources and services.